Terug naar catalogus

FENGYUN 1C DEB *

ActiefPO
NORAD 46993·DEBRIS·🇨🇳 China

Gelanceerd May 10, 1999 vanaf Taiyuan Satellite Launch Center

Loading…

Volgende Passages (komende 24 uur)

TLE

VersSource: Space-Track

Epoch: Sep 13, 2026, 02:51 UTC

1 46993U 99025EZT 26256.11909788  .00000293  00000-0  30231-3 0  9996
2 46993  98.7392 354.2641 0261541 292.8491 189.3926 13.69388242640127

Volg FENGYUN 1C DEB * in realtime met AllMySat

Download on the App Store